Location: Bo?a Wola
(50.4192°N, 19.7966°E)
Time: 03:53:20
(UTC+00:00)

CZ-4C R/B - Pass Details

Date: 13 September 2024
Orbit: 519 x 1471 km, 63.4° (Epoch: 09 October)

Event Time Altitude Azimuth Distance (km) Brightness Sun altitude
Exits shadow 03:02:59 - 288° (WNW) 2,392 4.1 -11.8°
Reaches altitude 10° 03:03:17 10° 290° (WNW) 2,304 4.0 -11.7°
Maximum altitude 03:07:49 27° 348° (NNW) 1,644 3.8 -11.1°
Drops below altitude 10° 03:13:20 10° 45° (NE) 2,859 6.1 -10.2°
Sets 03:16:48 0° 57° (ENE) 3,996 7.4 -9.7°
